STARLINK-5736, 55584

Orbit data source: Space-Track

STARLINK-5736, 55584 is a payload satellite owned by SpaceX/Seattle (US) in LEO that was launched on Sun, 12 Feb 2023 UTC via an FALCON 9 launch vehicle from the Air Force Eastern Test Range (AFETR). Payload-class satellites include a variety of spacecraft equipped with specific instruments for various scientific and technological missions. These include communications satellites like Starlink; space stations such as the ISS; scientific satellites like the Hubble; Earth observation satellites from companies like Planet Labs, Umbra, and HawkEye 360; GPS; miniature CubeSats for education and research; and military/defense satellites.

Loading next visibility...
Identifier
55584, 2023-020R
Orbit
LEO
Country
Flag of USUS
Related business
Manufacturer
SpaceX/Seattle
Mission
Operational Commercial Communications
Bus & Motor
STARLINK, Unknown motor
Mass
305 kg wet, ~290 kg dry
Launch date (UTC)
2023-02-12 (3 years ago)
Launch vehicle
FALCON 9
Launch site
Air Force Eastern Test Range (AFETR)
Object type
Payload
Rocket body
Debris
Shape & HBR
Box + 1 Pan, 10.1 m
Radar Cross Section
13.562 m², Large (>1 m²)

Expand to show TLE details & history
Last TLE update: 2 days ago

TLE from 2 days ago
0 STARLINK-5736
1 55584U 23020R   26171.38494354 -.00000300  00000-0 -13767-5 0  9995
2 55584  43.0032 145.6688 0001487 275.6720  84.3962 15.27583111184614
Epoch: 2026-06-20T09:14Z
TLE epoch observation values (Epoch: 2026-06-20T09:14:19.121Z)
Latitude
-0.00004°
Longitude
98.48875°
Altitude
482.716 km
Speed
7.626 km/s
True Right ascension
09h 42m 40s
True Declination
0° 00' 00"
Sunlit
Object was in daylight at epoch
Visualization orbit readout
Latitude
Unknown
Longitude
Unknown
Altitude
Unknown
Speed
Unknown
Apparent Right ascension
Unknown
Apparent Declination
Unknown
Sunlit
N/A
Visualization observer readout
Local Sidereal Time
00:55:23
Azimuth
Unknown
Elevation
Unknown
Doppler factor
Unknown
Orbital elements
Apogee altitude
486.005 km
Perigee altitude
483.964 km
Semi-major axis
6,863.121 km
Eccentricity
0.00015
Inclination
43.0032°
RAAN
145.6688°
Arg. of periapsis
275.672°
True anomaly
84.41316°
Mean anomaly
84.3962°
Eccentric anomaly
84.40468°
Mean motion
3.81734 °/min
Orbital period
94.31 mins
BSTAR
-0.0000013767
Loading maneuver chart data...
Computing Atmospheric mass density...
Loading historical data...
Loading historical data...
Loading historical data...
Loading historical data...
Loading historical data...
Loading historical data...
Loading historical data...

Documentation

Showing up to 5 results
|